User: anonymous   Login
Location: Unspecified
(0.0000°N, 0.0000°E)
Time: 18:22:57
(UTC+00:00)
Language:

STARLINK-5150 - Orbit

View from above orbital plane
View from above orbital plane
View from above satellite
View from above satellite

Ground track
Ground track

The orbit is defined by the following mean orbital elements,

1 57144U          26145.17370190 +.00000000 +00000-0 +16398-4 0 00001
2 57144  43.0032 191.1438 0001244 273.9307  86.1402 15.27577027    08
Epoch (UTC): 25 May 2026 04:10:07
Eccentricity: 0.0001244
inclination: 43.0032°
perigee height: 482 km
apogee height: 484 km
right ascension of ascending node: 191.1438°
argument of perigee: 273.9307°
revolutions per day: 15.27577027
mean anomaly at epoch: 86.1402°

The dashed part of the orbit path shows where the satellite is in the earth's shadow,  

DLR